Overview Statistics Trail Chart Weather Telemetry Raw packets
 

This is the latest recevied weather packets stored in our database for station/object WX5RP. If no packets are shown the sender has not sent any weather packets the latest 10 day(s).

<< 37 38 39 40 41 42 43 >>
Time Temp. Humidity Pressure Rain* Wind** Luminosity Snow
1777428316 15° C 27% 1017.9 hPa 0 mm - 43 W/m² -
1777427715 15° C 27% 1017.6 hPa 0 mm - 66 W/m² -
1777427115 15° C 30% 1017.6 hPa 0 mm - 83 W/m² -
1777426515 15° C 26% 1017.6 hPa 0 mm - 104 W/m² -
1777425916 15° C 26% 1017.4 hPa 0 mm - 96 W/m² -
1777425315 15.56° C 25% 1017.3 hPa 0 mm - 100 W/m² -
1777424715 16.67° C 26% 1018 hPa 0 mm - 123 W/m² -
1777424116 16.11° C 21% 1018.1 hPa 0 mm - 293 W/m² -
1777423515 16.67° C 27% 1018.8 hPa 0 mm - 172 W/m² -
1777422918 17.22° C 19% 1018.4 hPa 0 mm - 331 W/m² -
1777422317 17.22° C 20% 1018.4 hPa 0 mm - 383 W/m² -
1777421717 17.78° C 19% 1018.4 hPa 0 mm - 361 W/m² -
1777421117 17.22° C 20% 1018.1 hPa 0 mm - 469 W/m² -
1777420517 17.22° C 19% 1018 hPa 0 mm - 350 W/m² -
1777419917 17.78° C 18% 1018.6 hPa 0 mm - 524 W/m² -
1777419318 17.22° C 18% 1018.8 hPa 0 mm - 606 W/m² -
1777418717 17.22° C 16% 1018.9 hPa 0 mm - 521 W/m² -
1777418117 16.67° C 18% 1018.3 hPa 0 mm - 538 W/m² -
1777417517 17.22° C 17% 1018.5 hPa 0 mm - 393 W/m² -
1777416917 17.78° C 16% 1018.7 hPa 0 mm - 558 W/m² -
1777416317 17.78° C 18% 1018.7 hPa 0 mm - 693 W/m² -
1777415717 17.22° C 16% 1018.8 hPa 0 mm - 720 W/m² -
1777415116 17.22° C 18% 1019.3 hPa 0 mm - 746 W/m² -
1777414516 17.22° C 16% 1019.6 hPa 0 mm - 760 W/m² -
1777413918 16.67° C 18% 1019.2 hPa 0 mm - 713 W/m² -

* Rain latest hour (hover to see other rain measurements)
** Current wind speed in m/s (hover to see current wind gust speed)